Location: Newark
(49.8822°N, 3.1064°E)
Time: 21:33:13
(UTC+00:00)

N. Korean satellite - Visible Passes

Search period start: 19 January 2020 00:00
Search period end: 29 January 2020 00:00
Orbit: 454 x 508 km, 97.2° (Epoch: 19 January)

Date Brightness Start Highest point End Pass type
(mag) Time Alt. Az. Time Alt. Az. Time Alt. Az.
19 Jan 8.4 05:10:00 10° NNE 05:13:09 31° E 05:16:21 10° SSE visible
19 Jan 7.7 06:43:40 10° NNW 06:46:26 22° WNW 06:49:12 10° WSW visible
19 Jan 8.9 17:23:14 10° SSW 17:26:11 27° W 17:29:10 10° NW visible
20 Jan 9.5 04:45:08 10° NE 04:47:30 17° E 04:49:52 10° SE visible
20 Jan 6.9 06:17:45 10° N 06:21:04 40° WNW 06:24:25 10° SW visible
20 Jan 7.4 16:57:14 10° S 17:00:35 54° W 17:03:58 10° NNW visible
21 Jan 6.4 05:52:06 10° N 05:55:38 81° WNW 05:59:12 10° SSW visible
22 Jan 7.5 05:26:39 10° NNE 05:30:06 49° E 05:33:36 10° S visible
22 Jan 9.6 17:40:48 10° SW 17:43:11 18° W 17:45:35 10° NW visible
23 Jan 8.9 05:01:30 10° NE 05:04:30 25° E 05:07:32 10° SSE visible
23 Jan 7.5 06:34:51 10° N 06:37:52 27° WNW 06:40:55 10° SW visible
23 Jan 8.5 17:14:23 10° SSW 17:17:31 33° W 17:20:40 10° NNW visible
24 Jan 9.8 04:36:52 10° ENE 04:38:48 14° E 04:40:45 10° ESE visible
24 Jan 6.7 06:09:01 10° N 06:12:29 50° WNW 06:15:58 10° SSW visible
25 Jan 6.6 05:43:26 10° NNE 05:47:01 80° ESE 05:50:37 10° S visible
25 Jan 10.0 17:58:58 10° WSW 18:00:12 12° W 18:01:27 10° WNW visible
26 Jan 8.0 05:18:04 10° NNE 05:21:27 39° E 05:24:52 10° S visible
26 Jan 8.0 06:52:04 10° NNW 06:54:37 19° WNW 06:57:11 10° WSW visible
26 Jan 9.4 17:31:45 10° SW 17:34:28 22° W 17:37:12 10° NW visible
27 Jan 9.2 04:53:01 10° NE 04:55:49 21° E 04:58:38 10° SE visible
27 Jan 7.2 06:26:03 10° N 06:29:17 33° WNW 06:32:33 10° SW visible
27 Jan 8.0 17:05:33 10° S 17:08:49 42° W 17:12:08 10° NNW visible
28 Jan 10.1 04:28:47 10° ENE 04:30:05 12° E 04:31:24 10° ESE visible
28 Jan 6.5 06:00:18 10° N 06:03:51 64° WNW 06:07:28 10° SSW visible
